Data supplied by UK-AIR on 19/3/2020
All Data GMT hour ending 
Status: R =Ratified P=Provisional,P*=As supplied
,,Aberdeen Union Street Roadside,,,,,,,,,,,,,,,,,,,,,,,
Date,time,"Nitric oxide",status,unit,"Nitrogen dioxide",status,unit,"Nitrogen oxides as nitrogen dioxide",status,unit
 
01-01-2019,01:00,16.59317,R,ugm-3,21.53097,R,ugm-3,46.97348,R,ugm-3
01-01-2019,02:00,11.81557,R,ugm-3,15.02240,R,ugm-3,33.13936,R,ugm-3
01-01-2019,03:00,16.49043,R,ugm-3,21.25864,R,ugm-3,46.54360,R,ugm-3
01-01-2019,04:00,17.53071,R,ugm-3,26.87371,R,ugm-3,53.75376,R,ugm-3
01-01-2019,05:00,17.18395,R,ugm-3,24.88478,R,ugm-3,51.23313,R,ugm-3
01-01-2019,06:00,5.12436,R,ugm-3,11.95603,R,ugm-3,19.81327,R,ugm-3
01-01-2019,07:00,4.43084,R,ugm-3,10.38155,R,ugm-3,17.17541,R,ugm-3
01-01-2019,08:00,2.65850,R,ugm-3,6.65099,R,ugm-3,10.72730,R,ugm-3
01-01-2019,09:00,2.27321,R,ugm-3,8.47276,R,ugm-3,11.95831,R,ugm-3
01-01-2019,10:00,2.81262,R,ugm-3,6.35606,R,ugm-3,10.66868,R,ugm-3
01-01-2019,11:00,4.31525,R,ugm-3,7.86230,R,ugm-3,14.47893,R,ugm-3
01-01-2019,12:00,9.01579,R,ugm-3,14.54764,R,ugm-3,28.37167,R,ugm-3
01-01-2019,13:00,7.97551,R,ugm-3,17.13925,R,ugm-3,29.36819,R,ugm-3
01-01-2019,14:00,12.48341,R,ugm-3,18.90287,R,ugm-3,38.04383,R,ugm-3
01-01-2019,15:00,14.10163,R,ugm-3,22.04907,R,ugm-3,43.67126,R,ugm-3
01-01-2019,16:00,15.21897,R,ugm-3,27.83909,R,ugm-3,51.17451,R,ugm-3
01-01-2019,17:00,15.52720,R,ugm-3,26.48719,R,ugm-3,50.29523,R,ugm-3
01-01-2019,18:00,11.98253,R,ugm-3,24.18455,R,ugm-3,42.55750,R,ugm-3
01-01-2019,19:00,9.86343,R,ugm-3,17.99610,R,ugm-3,33.11982,R,ugm-3
01-01-2019,20:00,10.82666,R,ugm-3,19.21565,R,ugm-3,35.81630,R,ugm-3
01-01-2019,21:00,8.63050,R,ugm-3,18.71418,R,ugm-3,31.94744,R,ugm-3
01-01-2019,22:00,6.28023,R,ugm-3,16.98354,R,ugm-3,26.61309,R,ugm-3
01-01-2019,23:00,9.94049,R,ugm-3,19.16757,R,ugm-3,34.40944,R,ugm-3
01-01-2019,24:00,10.32578,R,ugm-3,19.28023,R,ugm-3,35.11287,R,ugm-3
02-01-2019,01:00,6.27116,R,ugm-3,16.26248,R,ugm-3,25.87813,R,ugm-3
02-01-2019,02:00,5.08890,R,ugm-3,8.30256,R,ugm-3,16.10542,R,ugm-3
02-01-2019,03:00,5.78284,R,ugm-3,17.51942,R,ugm-3,26.38631,R,ugm-3
02-01-2019,04:00,7.98031,R,ugm-3,12.09773,R,ugm-3,24.33404,R,ugm-3
02-01-2019,05:00,2.27458,R,ugm-3,6.71506,R,ugm-3,10.20271,R,ugm-3
02-01-2019,06:00,4.74193,R,ugm-3,19.93637,R,ugm-3,27.20722,R,ugm-3
02-01-2019,07:00,8.75136,R,ugm-3,21.29410,R,ugm-3,34.71266,R,ugm-3
02-01-2019,08:00,11.64278,R,ugm-3,36.91425,R,ugm-3,54.76625,R,ugm-3
02-01-2019,09:00,25.52158,R,ugm-3,47.35592,R,ugm-3,86.48846,R,ugm-3
02-01-2019,10:00,52.89367,R,ugm-3,59.44859,R,ugm-3,140.55108,R,ugm-3
02-01-2019,11:00,72.86372,R,ugm-3,70.16681,R,ugm-3,181.88963,R,ugm-3
02-01-2019,12:00,66.15563,R,ugm-3,72.82969,R,ugm-3,174.26692,R,ugm-3
02-01-2019,13:00,73.59621,R,ugm-3,59.01688,R,ugm-3,171.86283,R,ugm-3
02-01-2019,14:00,87.70633,R,ugm-3,77.66476,R,ugm-3,212.14593,R,ugm-3
02-01-2019,15:00,73.59621,R,ugm-3,68.80913,R,ugm-3,181.65509,R,ugm-3
02-01-2019,16:00,84.46794,R,ugm-3,84.74113,R,ugm-3,214.25684,R,ugm-3
02-01-2019,17:00,121.43954,R,ugm-3,94.36973,R,ugm-3,280.57443,R,ugm-3
02-01-2019,18:00,107.44508,R,ugm-3,95.24629,R,ugm-3,259.99311,R,ugm-3
02-01-2019,19:00,72.55531,R,ugm-3,76.09288,R,ugm-3,187.34280,R,ugm-3
02-01-2019,20:00,61.33661,R,ugm-3,58.75790,R,ugm-3,152.80605,R,ugm-3
02-01-2019,21:00,48.15174,R,ugm-3,46.43130,R,ugm-3,120.26294,R,ugm-3
02-01-2019,22:00,29.99364,R,ugm-3,43.84112,R,ugm-3,89.83073,R,ugm-3
02-01-2019,23:00,25.59868,R,ugm-3,29.64682,R,ugm-3,68.89759,R,ugm-3
02-01-2019,24:00,20.54834,R,ugm-3,24.78378,R,ugm-3,56.29079,R,ugm-3
03-01-2019,01:00,21.13934,R,ugm-3,25.53630,R,ugm-3,57.94950,R,ugm-3
03-01-2019,02:00,12.24127,R,ugm-3,21.66202,R,ugm-3,40.43170,R,ugm-3
03-01-2019,03:00,8.17799,R,ugm-3,16.66995,R,ugm-3,29.20936,R,ugm-3
03-01-2019,04:00,4.86051,R,ugm-3,11.96159,R,ugm-3,19.41426,R,ugm-3
03-01-2019,05:00,5.05338,R,ugm-3,11.60719,R,ugm-3,19.35560,R,ugm-3
03-01-2019,06:00,14.58152,R,ugm-3,21.74930,R,ugm-3,44.10731,R,ugm-3
03-01-2019,07:00,42.31725,R,ugm-3,45.44138,R,ugm-3,110.32694,R,ugm-3
03-01-2019,08:00,59.21330,R,ugm-3,46.16310,R,ugm-3,136.95555,R,ugm-3
03-01-2019,09:00,63.14799,R,ugm-3,55.73177,R,ugm-3,152.55734,R,ugm-3
03-01-2019,10:00,87.45052,R,ugm-3,61.63728,R,ugm-3,195.72620,R,ugm-3
03-01-2019,11:00,46.63770,R,ugm-3,43.15714,R,ugm-3,114.66728,R,ugm-3
03-01-2019,12:00,93.08253,R,ugm-3,60.56793,R,ugm-3,203.29248,R,ugm-3
03-01-2019,13:00,75.83931,R,ugm-3,53.22284,R,ugm-3,169.50816,R,ugm-3
03-01-2019,14:00,77.34375,R,ugm-3,56.07755,R,ugm-3,174.66965,R,ugm-3
03-01-2019,15:00,108.12695,R,ugm-3,57.67689,R,ugm-3,223.46923,R,ugm-3
03-01-2019,16:00,130.19210,R,ugm-3,79.79942,R,ugm-3,279.42452,R,ugm-3
03-01-2019,17:00,157.31063,R,ugm-3,78.16118,R,ugm-3,319.36745,R,ugm-3
03-01-2019,18:00,120.20106,R,ugm-3,73.18245,R,ugm-3,257.48817,R,ugm-3
03-01-2019,19:00,89.41786,R,ugm-3,68.35718,R,ugm-3,205.46266,R,ugm-3
03-01-2019,20:00,57.55455,R,ugm-3,55.92083,R,ugm-3,144.16992,R,ugm-3
03-01-2019,21:00,44.82466,R,ugm-3,52.09570,R,ugm-3,120.82588,R,ugm-3
03-01-2019,22:00,31.59328,R,ugm-3,40.65207,R,ugm-3,89.09443,R,ugm-3
03-01-2019,23:00,30.51317,R,ugm-3,40.13804,R,ugm-3,86.92425,R,ugm-3
03-01-2019,24:00,28.58440,R,ugm-3,31.65805,R,ugm-3,75.48685,R,ugm-3
04-01-2019,01:00,10.47588,R,ugm-3,23.75311,R,ugm-3,39.81590,R,ugm-3
04-01-2019,02:00,5.72819,R,ugm-3,16.03312,R,ugm-3,24.81622,R,ugm-3
04-01-2019,03:00,11.61120,R,ugm-3,21.36442,R,ugm-3,39.16801,R,ugm-3
04-01-2019,04:00,5.07022,R,ugm-3,14.48969,R,ugm-3,22.26392,R,ugm-3
04-01-2019,05:00,2.70928,R,ugm-3,11.21854,R,ugm-3,15.37271,R,ugm-3
04-01-2019,06:00,13.27547,R,ugm-3,20.69735,R,ugm-3,41.05279,R,ugm-3
04-01-2019,07:00,48.72832,R,ugm-3,48.67824,R,ugm-3,123.39395,R,ugm-3
04-01-2019,08:00,80.27207,R,ugm-3,57.79751,R,ugm-3,180.87963,R,ugm-3
04-01-2019,09:00,94.63125,R,ugm-3,62.75627,R,ugm-3,207.85549,R,ugm-3
04-01-2019,10:00,72.49257,R,ugm-3,54.94220,R,ugm-3,166.09592,R,ugm-3
04-01-2019,11:00,100.43685,R,ugm-3,60.62789,R,ugm-3,214.62891,R,ugm-3
04-01-2019,12:00,96.72127,R,ugm-3,66.56063,R,ugm-3,214.86450,R,ugm-3
04-01-2019,13:00,75.70500,R,ugm-3,55.19967,R,ugm-3,171.27905,R,ugm-3
04-01-2019,14:00,124.08499,R,ugm-3,67.12878,R,ugm-3,257.38977,R,ugm-3
04-01-2019,15:00,101.28834,R,ugm-3,66.33130,R,ugm-3,221.63792,R,ugm-3
04-01-2019,16:00,112.47379,R,ugm-3,64.84772,R,ugm-3,237.30512,R,ugm-3
04-01-2019,17:00,127.56834,R,ugm-3,67.44204,R,ugm-3,263.04410,R,ugm-3
04-01-2019,18:00,103.33965,R,ugm-3,60.41774,R,ugm-3,218.86965,R,ugm-3
04-01-2019,19:00,106.74560,R,ugm-3,63.26455,R,ugm-3,226.93885,R,ugm-3
04-01-2019,20:00,77.98854,R,ugm-3,51.52160,R,ugm-3,171.10235,R,ugm-3
04-01-2019,21:00,85.34229,R,ugm-3,50.08217,R,ugm-3,180.93853,R,ugm-3
04-01-2019,22:00,53.99206,R,ugm-3,44.14123,R,ugm-3,126.92791,R,ugm-3
04-01-2019,23:00,43.15495,R,ugm-3,40.61437,R,ugm-3,106.78436,R,ugm-3
04-01-2019,24:00,43.19365,R,ugm-3,45.62036,R,ugm-3,111.84970,R,ugm-3
05-01-2019,01:00,35.51883,R,ugm-3,32.20596,R,ugm-3,86.66741,R,ugm-3
05-01-2019,02:00,23.86907,R,ugm-3,25.46428,R,ugm-3,62.06301,R,ugm-3
05-01-2019,03:00,20.58125,R,ugm-3,31.96445,R,ugm-3,63.52192,R,ugm-3
05-01-2019,04:00,23.68785,R,ugm-3,27.08277,R,ugm-3,63.40363,R,ugm-3
05-01-2019,05:00,10.40712,R,ugm-3,19.76633,R,ugm-3,35.72369,R,ugm-3
05-01-2019,06:00,15.33885,R,ugm-3,20.89878,R,ugm-3,44.41803,R,ugm-3
05-01-2019,07:00,34.94929,R,ugm-3,39.38807,R,ugm-3,92.97622,R,ugm-3
05-01-2019,08:00,51.29778,R,ugm-3,65.48130,R,ugm-3,144.13680,R,ugm-3
05-01-2019,09:00,54.63738,R,ugm-3,59.17775,R,ugm-3,142.95390,R,ugm-3
05-01-2019,10:00,81.27650,R,ugm-3,63.75517,R,ugm-3,188.37740,R,ugm-3
05-01-2019,11:00,92.77094,R,ugm-3,71.08988,R,ugm-3,213.33667,R,ugm-3
05-01-2019,12:00,87.87803,R,ugm-3,67.11806,R,ugm-3,201.86250,R,ugm-3
05-01-2019,13:00,100.96460,R,ugm-3,72.60299,R,ugm-3,227.41322,R,ugm-3
05-01-2019,14:00,132.45779,R,ugm-3,80.20630,R,ugm-3,283.30541,R,ugm-3
05-01-2019,15:00,164.02864,R,ugm-3,95.91171,R,ugm-3,347.41879,R,ugm-3
05-01-2019,16:00,153.97102,R,ugm-3,78.80334,R,ugm-3,314.88894,R,ugm-3
05-01-2019,17:00,133.00144,R,ugm-3,76.41545,R,ugm-3,280.34815,R,ugm-3
05-01-2019,18:00,140.22430,R,ugm-3,72.43799,R,ugm-3,287.44558,R,ugm-3
05-01-2019,19:00,99.21714,R,ugm-3,58.01201,R,ugm-3,210.14283,R,ugm-3
05-01-2019,20:00,115.41030,R,ugm-3,67.90105,R,ugm-3,244.86105,R,ugm-3
05-01-2019,21:00,113.50751,R,ugm-3,65.37727,R,ugm-3,239.41969,R,ugm-3
05-01-2019,22:00,50.94829,R,ugm-3,46.55842,R,ugm-3,124.67804,R,ugm-3
05-01-2019,23:00,62.05440,R,ugm-3,52.95078,R,ugm-3,148.09953,R,ugm-3
05-01-2019,24:00,46.63788,R,ugm-3,40.68799,R,ugm-3,112.19841,R,ugm-3
06-01-2019,01:00,50.33773,R,ugm-3,37.08504,R,ugm-3,114.26848,R,ugm-3
06-01-2019,02:00,42.12993,R,ugm-3,47.45289,R,ugm-3,112.05121,R,ugm-3
06-01-2019,03:00,50.80526,R,ugm-3,41.23823,R,ugm-3,119.13855,R,ugm-3
06-01-2019,04:00,24.81821,R,ugm-3,33.03708,R,ugm-3,71.09115,R,ugm-3
06-01-2019,05:00,10.36365,R,ugm-3,18.85309,R,ugm-3,34.74379,R,ugm-3
06-01-2019,06:00,6.27274,R,ugm-3,15.38559,R,ugm-3,25.00365,R,ugm-3
06-01-2019,07:00,5.57144,R,ugm-3,18.95533,R,ugm-3,27.49808,R,ugm-3
06-01-2019,08:00,31.98706,R,ugm-3,43.12885,R,ugm-3,92.17499,R,ugm-3
06-01-2019,09:00,38.29875,R,ugm-3,35.70792,R,ugm-3,94.43185,R,ugm-3
06-01-2019,10:00,45.35071,R,ugm-3,45.32560,R,ugm-3,114.86239,R,ugm-3
06-01-2019,11:00,45.19486,R,ugm-3,49.72194,R,ugm-3,119.01976,R,ugm-3
06-01-2019,12:00,58.83124,R,ugm-3,55.71728,R,ugm-3,145.92393,R,ugm-3
06-01-2019,13:00,107.80533,R,ugm-3,74.81901,R,ugm-3,240.11822,R,ugm-3
06-01-2019,14:00,79.16893,R,ugm-3,66.28520,R,ugm-3,187.67587,R,ugm-3
06-01-2019,15:00,106.94819,R,ugm-3,78.09318,R,ugm-3,242.07812,R,ugm-3
06-01-2019,16:00,93.77934,R,ugm-3,77.49825,R,ugm-3,221.29124,R,ugm-3
06-01-2019,17:00,78.35075,R,ugm-3,77.93317,R,ugm-3,198.06932,R,ugm-3
06-01-2019,18:00,101.64948,R,ugm-3,92.15687,R,ugm-3,248.01723,R,ugm-3
06-01-2019,19:00,135.19498,R,ugm-3,84.61118,R,ugm-3,291.90725,R,ugm-3
06-01-2019,20:00,72.38970,R,ugm-3,62.60419,R,ugm-3,173.60018,R,ugm-3
06-01-2019,21:00,82.24686,R,ugm-3,60.85309,R,ugm-3,186.96318,R,ugm-3
06-01-2019,22:00,33.81823,R,ugm-3,49.70489,R,ugm-3,101.55878,R,ugm-3
06-01-2019,23:00,11.22079,R,ugm-3,24.60636,R,ugm-3,41.81133,R,ugm-3
06-01-2019,24:00,7.36365,R,ugm-3,18.46417,R,ugm-3,29.75494,R,ugm-3
07-01-2019,01:00,2.55386,R,ugm-3,9.52235,R,ugm-3,13.43821,R,ugm-3
07-01-2019,02:00,1.82418,R,ugm-3,6.50633,R,ugm-3,9.30338,R,ugm-3
07-01-2019,03:00,4.18259,R,ugm-3,13.14772,R,ugm-3,19.56094,R,ugm-3
07-01-2019,04:00,1.09451,R,ugm-3,8.28116,R,ugm-3,9.95938,R,ugm-3
07-01-2019,05:00,1.99357,R,ugm-3,8.03572,R,ugm-3,11.09249,R,ugm-3
07-01-2019,06:00,3.67443,R,ugm-3,9.69267,R,ugm-3,15.32671,R,ugm-3
07-01-2019,07:00,20.20934,R,ugm-3,19.64460,R,ugm-3,50.63183,R,ugm-3
07-01-2019,08:00,14.81497,R,ugm-3,20.93832,R,ugm-3,43.65430,R,ugm-3
07-01-2019,09:00,22.71108,R,ugm-3,32.02993,R,ugm-3,66.85310,R,ugm-3
07-01-2019,10:00,46.47758,R,ugm-3,34.11398,R,ugm-3,105.37861,R,ugm-3
07-01-2019,11:00,138.76822,R,ugm-3,72.11107,R,ugm-3,284.88604,R,ugm-3
07-01-2019,12:00,108.43466,R,ugm-3,70.49480,R,ugm-3,236.75896,R,ugm-3
07-01-2019,13:00,76.38116,R,ugm-3,58.57452,R,ugm-3,175.69066,R,ugm-3
07-01-2019,14:00,42.21681,R,ugm-3,35.87611,R,ugm-3,100.60765,R,ugm-3
07-01-2019,15:00,45.81306,R,ugm-3,43.42245,R,ugm-3,113.66816,R,ugm-3
07-01-2019,16:00,47.84572,R,ugm-3,39.94792,R,ugm-3,113.31034,R,ugm-3
07-01-2019,17:00,47.02484,R,ugm-3,34.94471,R,ugm-3,107.04845,R,ugm-3
07-01-2019,18:00,30.72446,R,ugm-3,35.01000,R,ugm-3,82.12017,R,ugm-3
07-01-2019,19:00,21.92929,R,ugm-3,34.95813,R,ugm-3,68.58257,R,ugm-3
07-01-2019,20:00,18.02032,R,ugm-3,21.98722,R,ugm-3,49.61800,R,ugm-3
07-01-2019,21:00,13.21230,R,ugm-3,19.57895,R,ugm-3,39.83753,R,ugm-3
07-01-2019,22:00,8.09156,R,ugm-3,12.70031,R,ugm-3,25.10719,R,ugm-3
07-01-2019,23:00,7.30976,R,ugm-3,9.90336,R,ugm-3,21.11150,R,ugm-3
07-01-2019,24:00,5.94163,R,ugm-3,9.01929,R,ugm-3,18.12965,R,ugm-3
08-01-2019,01:00,2.71913,R,ugm-3,5.01278,R,ugm-3,9.18205,R,ugm-3
08-01-2019,02:00,1.35956,R,ugm-3,3.50444,R,ugm-3,5.58908,R,ugm-3
08-01-2019,03:00,2.23544,R,ugm-3,3.93798,R,ugm-3,7.36560,R,ugm-3
08-01-2019,04:00,1.52951,R,ugm-3,3.76284,R,ugm-3,6.10806,R,ugm-3
08-01-2019,05:00,1.49029,R,ugm-3,3.10438,R,ugm-3,5.38947,R,ugm-3
08-01-2019,06:00,10.35360,R,ugm-3,15.74289,R,ugm-3,31.61819,R,ugm-3
08-01-2019,07:00,27.84492,R,ugm-3,38.86562,R,ugm-3,81.56056,R,ugm-3
08-01-2019,08:00,35.02184,R,ugm-3,47.98182,R,ugm-3,101.68123,R,ugm-3
08-01-2019,09:00,55.76827,R,ugm-3,53.89733,R,ugm-3,139.40748,R,ugm-3
08-01-2019,10:00,68.94558,R,ugm-3,55.07061,R,ugm-3,160.78569,R,ugm-3
08-01-2019,11:00,56.31732,R,ugm-3,49.64213,R,ugm-3,135.99415,R,ugm-3
08-01-2019,12:00,57.06247,R,ugm-3,61.79360,R,ugm-3,149.28816,R,ugm-3
08-01-2019,13:00,48.43447,R,ugm-3,50.29137,R,ugm-3,124.55651,R,ugm-3
08-01-2019,14:00,67.45529,R,ugm-3,52.98424,R,ugm-3,156.41423,R,ugm-3
08-01-2019,15:00,58.55276,R,ugm-3,56.93355,R,ugm-3,146.71320,R,ugm-3
08-01-2019,16:00,72.08303,R,ugm-3,67.80561,R,ugm-3,178.33139,R,ugm-3
08-01-2019,17:00,96.31988,R,ugm-3,72.80056,R,ugm-3,220.48898,R,ugm-3
08-01-2019,18:00,85.26035,R,ugm-3,55.26570,R,ugm-3,185.99641,R,ugm-3
08-01-2019,19:00,50.12085,R,ugm-3,48.06491,R,ugm-3,124.91581,R,ugm-3
08-01-2019,20:00,43.02235,R,ugm-3,56.07474,R,ugm-3,122.04143,R,ugm-3
08-01-2019,21:00,33.06093,R,ugm-3,38.41309,R,ugm-3,89.10581,R,ugm-3
08-01-2019,22:00,24.98199,R,ugm-3,34.93165,R,ugm-3,73.23683,R,ugm-3
08-01-2019,23:00,35.21794,R,ugm-3,37.38128,R,ugm-3,91.38136,R,ugm-3
08-01-2019,24:00,16.39320,R,ugm-3,24.68671,R,ugm-3,49.82260,R,ugm-3
09-01-2019,01:00,8.28905,R,ugm-3,16.55302,R,ugm-3,29.26271,R,ugm-3
09-01-2019,02:00,3.72482,R,ugm-3,8.55926,R,ugm-3,14.27058,R,ugm-3
09-01-2019,03:00,4.60357,R,ugm-3,8.93557,R,ugm-3,15.99428,R,ugm-3
09-01-2019,04:00,5.03638,R,ugm-3,11.51889,R,ugm-3,19.24123,R,ugm-3
09-01-2019,05:00,11.56794,R,ugm-3,15.39374,R,ugm-3,33.13100,R,ugm-3
09-01-2019,06:00,13.88940,R,ugm-3,26.02463,R,ugm-3,47.32141,R,ugm-3
09-01-2019,07:00,40.80257,R,ugm-3,52.70395,R,ugm-3,115.26702,R,ugm-3
09-01-2019,08:00,93.33047,R,ugm-3,77.38779,R,ugm-3,220.49252,R,ugm-3
09-01-2019,09:00,122.25032,R,ugm-3,93.71465,R,ugm-3,281.16253,R,ugm-3
09-01-2019,10:00,82.23469,R,ugm-3,76.00166,R,ugm-3,202.09309,R,ugm-3
09-01-2019,11:00,121.06992,R,ugm-3,81.27404,R,ugm-3,266.91199,R,ugm-3
09-01-2019,12:00,100.33419,R,ugm-3,89.49787,R,ugm-3,243.34148,R,ugm-3
09-01-2019,13:00,109.97414,R,ugm-3,72.49205,R,ugm-3,241.11671,R,ugm-3
09-01-2019,14:00,125.55545,R,ugm-3,86.78287,R,ugm-3,279.29854,R,ugm-3
09-01-2019,15:00,161.59707,R,ugm-3,86.29722,R,ugm-3,334.07593,R,ugm-3
09-01-2019,16:00,172.41742,R,ugm-3,79.98827,R,ugm-3,344.35796,R,ugm-3
09-01-2019,17:00,138.02837,R,ugm-3,82.75034,R,ugm-3,294.39088,R,ugm-3
09-01-2019,18:00,132.12636,R,ugm-3,90.65751,R,ugm-3,293.24843,R,ugm-3
09-01-2019,19:00,104.81972,R,ugm-3,87.06969,R,ugm-3,247.79102,R,ugm-3
09-01-2019,20:00,72.04388,R,ugm-3,89.40257,R,ugm-3,199.86832,R,ugm-3
09-01-2019,21:00,60.08247,R,ugm-3,59.33942,R,ugm-3,151.46459,R,ugm-3
09-01-2019,22:00,53.15745,R,ugm-3,53.36208,R,ugm-3,134.86903,R,ugm-3
09-01-2019,23:00,42.69121,R,ugm-3,45.59905,R,ugm-3,111.05800,R,ugm-3
09-01-2019,24:00,31.43805,R,ugm-3,34.29246,R,ugm-3,82.49679,R,ugm-3
10-01-2019,01:00,12.00049,R,ugm-3,19.51487,R,ugm-3,37.91536,R,ugm-3
10-01-2019,02:00,6.36868,R,ugm-3,13.33824,R,ugm-3,23.10342,R,ugm-3
10-01-2019,03:00,9.82935,R,ugm-3,17.59130,R,ugm-3,32.66275,R,ugm-3
10-01-2019,04:00,9.00037,R,ugm-3,18.68126,R,ugm-3,32.48163,R,ugm-3
10-01-2019,05:00,13.85583,R,ugm-3,25.96777,R,ugm-3,47.21308,R,ugm-3
10-01-2019,06:00,32.84344,R,ugm-3,36.21819,R,ugm-3,86.57743,R,ugm-3
10-01-2019,07:00,83.49024,R,ugm-3,57.57548,R,ugm-3,185.59206,R,ugm-3
10-01-2019,08:00,55.81806,R,ugm-3,49.04925,R,ugm-3,134.63575,R,ugm-3
10-01-2019,09:00,90.24052,R,ugm-3,79.46533,R,ugm-3,217.83219,R,ugm-3
10-01-2019,10:00,60.51562,R,ugm-3,57.12124,R,ugm-3,149.91057,R,ugm-3
10-01-2019,11:00,70.73972,R,ugm-3,69.21690,R,ugm-3,177.68296,R,ugm-3
10-01-2019,12:00,73.54247,R,ugm-3,55.44058,R,ugm-3,168.20412,R,ugm-3
10-01-2019,13:00,65.41056,R,ugm-3,40.55956,R,ugm-3,140.85435,R,ugm-3
10-01-2019,14:00,74.29250,R,ugm-3,50.24544,R,ugm-3,164.15902,R,ugm-3
10-01-2019,15:00,99.99091,R,ugm-3,77.85775,R,ugm-3,231.17502,R,ugm-3
10-01-2019,16:00,98.72770,R,ugm-3,72.00630,R,ugm-3,223.38667,R,ugm-3
10-01-2019,17:00,199.70550,R,ugm-3,99.44729,R,ugm-3,405.65812,R,ugm-3
10-01-2019,18:00,122.05760,R,ugm-3,75.96089,R,ugm-3,263.11327,R,ugm-3
10-01-2019,19:00,136.78189,R,ugm-3,80.06962,R,ugm-3,289.79892,R,ugm-3
10-01-2019,20:00,136.97926,R,ugm-3,71.97864,R,ugm-3,282.01058,R,ugm-3
10-01-2019,21:00,70.77920,R,ugm-3,69.03563,R,ugm-3,177.56222,R,ugm-3
10-01-2019,22:00,29.21172,R,ugm-3,39.43214,R,ugm-3,84.22281,R,ugm-3
10-01-2019,23:00,51.55473,R,ugm-3,53.95615,R,ugm-3,133.00563,R,ugm-3
10-01-2019,24:00,30.39598,R,ugm-3,35.92581,R,ugm-3,82.53232,R,ugm-3
11-01-2019,01:00,18.42899,R,ugm-3,32.04000,R,ugm-3,60.29738,R,ugm-3
11-01-2019,02:00,11.24749,R,ugm-3,21.71299,R,ugm-3,38.95890,R,ugm-3
11-01-2019,03:00,7.20790,R,ugm-3,13.74191,R,ugm-3,24.79386,R,ugm-3
11-01-2019,04:00,4.27722,R,ugm-3,12.77970,R,ugm-3,19.33800,R,ugm-3
11-01-2019,05:00,4.63365,R,ugm-3,12.59690,R,ugm-3,19.70173,R,ugm-3
11-01-2019,06:00,18.73262,R,ugm-3,32.80706,R,ugm-3,61.53001,R,ugm-3
11-01-2019,07:00,85.02945,R,ugm-3,72.58142,R,ugm-3,202.95809,R,ugm-3
11-01-2019,08:00,206.01919,R,ugm-3,83.84118,R,ugm-3,399.73286,R,ugm-3
11-01-2019,09:00,220.03895,R,ugm-3,108.96183,R,ugm-3,446.35018,R,ugm-3
11-01-2019,10:00,249.26658,R,ugm-3,109.55165,R,ugm-3,491.75508,R,ugm-3
11-01-2019,11:00,161.42526,R,ugm-3,90.14199,R,ugm-3,337.65727,R,ugm-3
11-01-2019,12:00,177.06878,R,ugm-3,103.55856,R,ugm-3,375.06024,R,ugm-3
11-01-2019,13:00,87.92053,R,ugm-3,71.66449,R,ugm-3,206.47409,R,ugm-3
11-01-2019,14:00,181.34599,R,ugm-3,84.87612,R,ugm-3,362.93610,R,ugm-3
11-01-2019,15:00,147.92035,R,ugm-3,93.14799,R,ugm-3,319.95603,R,ugm-3
11-01-2019,16:00,167.92029,R,ugm-3,115.10060,R,ugm-3,372.57479,R,ugm-3
11-01-2019,17:00,163.44506,R,ugm-3,108.08039,R,ugm-3,358.69265,R,ugm-3
11-01-2019,18:00,175.64304,R,ugm-3,100.16756,R,ugm-3,369.48314,R,ugm-3
11-01-2019,19:00,103.64326,R,ugm-3,82.29230,R,ugm-3,241.20974,R,ugm-3
11-01-2019,20:00,119.28677,R,ugm-3,90.67736,R,ugm-3,273.58120,R,ugm-3
11-01-2019,21:00,73.18790,R,ugm-3,63.94386,R,ugm-3,176.16374,R,ugm-3
11-01-2019,22:00,47.68303,R,ugm-3,62.85926,R,ugm-3,135.97222,R,ugm-3
11-01-2019,23:00,20.15836,R,ugm-3,41.47206,R,ugm-3,72.38111,R,ugm-3
11-01-2019,24:00,11.08908,R,ugm-3,16.58085,R,ugm-3,33.58387,R,ugm-3
12-01-2019,01:00,16.47570,R,ugm-3,26.92059,R,ugm-3,52.18298,R,ugm-3
12-01-2019,02:00,48.36757,R,ugm-3,49.76186,R,ugm-3,123.92443,R,ugm-3
12-01-2019,03:00,45.37439,R,ugm-3,49.72547,R,ugm-3,119.29856,R,ugm-3
12-01-2019,04:00,19.34968,R,ugm-3,28.15420,R,ugm-3,57.82328,R,ugm-3
12-01-2019,05:00,10.84694,R,ugm-3,15.81016,R,ugm-3,32.44191,R,ugm-3
12-01-2019,06:00,9.69470,R,ugm-3,14.41184,R,ugm-3,29.27684,R,ugm-3
12-01-2019,07:00,26.22338,R,ugm-3,31.85745,R,ugm-3,72.06607,R,ugm-3
12-01-2019,08:00,51.61238,R,ugm-3,37.90862,R,ugm-3,117.04650,R,ugm-3
12-01-2019,09:00,38.30203,R,ugm-3,44.62256,R,ugm-3,103.35151,R,ugm-3
12-01-2019,10:00,50.34094,R,ugm-3,48.07513,R,ugm-3,125.26349,R,ugm-3
12-01-2019,11:00,61.42628,R,ugm-3,51.16383,R,ugm-3,145.34947,R,ugm-3
12-01-2019,12:00,44.26189,R,ugm-3,47.84016,R,ugm-3,115.70743,R,ugm-3
12-01-2019,13:00,56.02267,R,ugm-3,47.70198,R,ugm-3,133.60222,R,ugm-3
12-01-2019,14:00,56.18160,R,ugm-3,61.70108,R,ugm-3,147.84501,R,ugm-3
12-01-2019,15:00,76.20673,R,ugm-3,67.15108,R,ugm-3,183.99977,R,ugm-3
12-01-2019,16:00,101.43680,R,ugm-3,73.68941,R,ugm-3,229.22367,R,ugm-3
12-01-2019,17:00,100.16536,R,ugm-3,72.10866,R,ugm-3,225.69340,R,ugm-3
12-01-2019,18:00,133.62004,R,ugm-3,84.11348,R,ugm-3,288.99468,R,ugm-3
12-01-2019,19:00,108.98595,R,ugm-3,79.52205,R,ugm-3,246.63152,R,ugm-3
12-01-2019,20:00,135.68612,R,ugm-3,94.70139,R,ugm-3,302.75054,R,ugm-3
12-01-2019,21:00,67.26694,R,ugm-3,62.05079,R,ugm-3,165.19199,R,ugm-3
12-01-2019,22:00,71.79643,R,ugm-3,68.73978,R,ugm-3,178.82611,R,ugm-3
12-01-2019,23:00,59.75752,R,ugm-3,62.24388,R,ugm-3,153.87080,R,ugm-3
12-01-2019,24:00,40.08998,R,ugm-3,45.53305,R,ugm-3,107.00351,R,ugm-3
13-01-2019,01:00,20.83399,R,ugm-3,26.31561,R,ugm-3,58.26062,R,ugm-3
13-01-2019,02:00,21.04658,R,ugm-3,29.33046,R,ugm-3,61.60143,R,ugm-3
13-01-2019,03:00,15.06744,R,ugm-3,19.98126,R,ugm-3,43.08434,R,ugm-3
13-01-2019,04:00,12.11773,R,ugm-3,16.43723,R,ugm-3,35.01748,R,ugm-3
13-01-2019,05:00,11.08134,R,ugm-3,16.86519,R,ugm-3,33.85634,R,ugm-3
13-01-2019,06:00,3.26860,R,ugm-3,5.80514,R,ugm-3,10.81692,R,ugm-3
13-01-2019,07:00,1.75388,R,ugm-3,5.01093,R,ugm-3,7.70018,R,ugm-3
13-01-2019,08:00,7.45400,R,ugm-3,9.65452,R,ugm-3,21.08383,R,ugm-3
13-01-2019,09:00,5.42109,R,ugm-3,12.34382,R,ugm-3,20.65604,R,ugm-3
13-01-2019,10:00,18.65492,R,ugm-3,21.08068,R,ugm-3,49.68449,R,ugm-3
13-01-2019,11:00,24.07601,R,ugm-3,25.11319,R,ugm-3,62.02922,R,ugm-3
13-01-2019,12:00,22.32213,R,ugm-3,31.10251,R,ugm-3,65.32930,R,ugm-3
13-01-2019,13:00,16.66188,R,ugm-3,21.63103,R,ugm-3,47.17888,R,ugm-3
13-01-2019,14:00,19.45214,R,ugm-3,21.81389,R,ugm-3,51.64009,R,ugm-3
13-01-2019,15:00,24.63406,R,ugm-3,21.26300,R,ugm-3,59.03471,R,ugm-3
13-01-2019,16:00,17.89756,R,ugm-3,26.70316,R,ugm-3,54.14570,R,ugm-3
13-01-2019,17:00,15.78493,R,ugm-3,18.57555,R,ugm-3,42.77877,R,ugm-3
13-01-2019,18:00,18.01715,R,ugm-3,19.91965,R,ugm-3,47.54555,R,ugm-3
13-01-2019,19:00,19.41228,R,ugm-3,27.55848,R,ugm-3,57.32356,R,ugm-3
13-01-2019,20:00,12.15759,R,ugm-3,19.12617,R,ugm-3,37.76755,R,ugm-3
13-01-2019,21:00,15.86466,R,ugm-3,22.85341,R,ugm-3,47.17888,R,ugm-3
13-01-2019,22:00,11.87856,R,ugm-3,17.23173,R,ugm-3,35.44527,R,ugm-3
13-01-2019,23:00,16.18354,R,ugm-3,23.40337,R,ugm-3,48.21779,R,ugm-3
13-01-2019,24:00,14.38980,R,ugm-3,20.16471,R,ugm-3,42.22876,R,ugm-3
14-01-2019,01:00,8.26450,R,ugm-3,16.28914,R,ugm-3,28.96119,R,ugm-3
14-01-2019,02:00,11.99685,R,ugm-3,21.93805,R,ugm-3,40.33296,R,ugm-3
14-01-2019,03:00,6.31834,R,ugm-3,12.76921,R,ugm-3,22.45719,R,ugm-3
14-01-2019,04:00,8.47777,R,ugm-3,17.31201,R,ugm-3,30.31108,R,ugm-3
14-01-2019,05:00,12.75665,R,ugm-3,19.95492,R,ugm-3,39.51484,R,ugm-3
14-01-2019,06:00,27.99265,R,ugm-3,33.96068,R,ugm-3,76.88214,R,ugm-3
14-01-2019,07:00,102.81299,R,ugm-3,63.79827,R,ugm-3,221.44265,R,ugm-3
14-01-2019,08:00,204.90617,R,ugm-3,82.55868,R,ugm-3,396.74375,R,ugm-3
14-01-2019,09:00,201.30711,R,ugm-3,102.55774,R,ugm-3,411.22435,R,ugm-3
14-01-2019,10:00,144.24211,R,ugm-3,82.12668,R,ugm-3,303.29483,R,ugm-3
14-01-2019,11:00,113.49018,R,ugm-3,84.54866,R,ugm-3,258.56452,R,ugm-3
14-01-2019,12:00,100.85350,R,ugm-3,79.13582,R,ugm-3,233.77570,R,ugm-3
14-01-2019,13:00,60.94399,R,ugm-3,47.37150,R,ugm-3,140.81765,R,ugm-3
14-01-2019,14:00,61.22392,R,ugm-3,57.00507,R,ugm-3,150.88043,R,ugm-3
14-01-2019,15:00,121.60805,R,ugm-3,67.80635,R,ugm-3,254.26942,R,ugm-3
14-01-2019,16:00,119.28866,R,ugm-3,74.73741,R,ugm-3,257.64414,R,ugm-3
14-01-2019,17:00,44.82822,R,ugm-3,51.58827,R,ugm-3,120.32392,R,ugm-3
14-01-2019,18:00,88.53674,R,ugm-3,73.60060,R,ugm-3,209.35504,R,ugm-3
14-01-2019,19:00,79.89901,R,ugm-3,68.80555,R,ugm-3,191.31565,R,ugm-3
14-01-2019,20:00,55.82533,R,ugm-3,50.49540,R,ugm-3,136.09305,R,ugm-3
14-01-2019,21:00,38.90978,R,ugm-3,41.58062,R,ugm-3,101.24145,R,ugm-3
14-01-2019,22:00,35.23074,R,ugm-3,40.90180,R,ugm-3,94.92153,R,ugm-3
14-01-2019,23:00,23.67378,R,ugm-3,29.04746,R,ugm-3,65.34675,R,ugm-3
14-01-2019,24:00,11.83689,R,ugm-3,18.05184,R,ugm-3,36.20149,R,ugm-3
15-01-2019,01:00,1.87218,R,ugm-3,8.30030,R,ugm-3,11.17093,R,ugm-3
15-01-2019,02:00,4.76068,R,ugm-3,16.35648,R,ugm-3,23.65608,R,ugm-3
15-01-2019,03:00,5.25546,R,ugm-3,20.64937,R,ugm-3,28.70764,R,ugm-3
15-01-2019,04:00,2.12626,R,ugm-3,13.37297,R,ugm-3,16.63318,R,ugm-3
15-01-2019,05:00,1.32390,R,ugm-3,11.39981,R,ugm-3,13.42975,R,ugm-3
15-01-2019,06:00,17.17052,R,ugm-3,27.39124,R,ugm-3,53.71901,R,ugm-3
15-01-2019,07:00,30.93101,R,ugm-3,46.82780,R,ugm-3,94.25469,R,ugm-3
15-01-2019,08:00,188.27398,R,ugm-3,80.38904,R,ugm-3,369.07179,R,ugm-3
15-01-2019,09:00,200.67046,R,ugm-3,89.78099,R,ugm-3,397.47140,R,ugm-3
15-01-2019,10:00,180.97250,R,ugm-3,90.66043,R,ugm-3,368.14772,R,ugm-3